Tracking 29892 objects as of 21-Nov-2024
HD Live streaming from Space Station
objects crossing your sky now

STARLINK-4049

Track STARLINK-4049 now!
10-day predictions
STARLINK-4049 is classified as:


NORAD ID: 52840
Int'l Code: 2022-062L
Perigee: 546.1 km
Apogee: 547.6 km
Inclination: 53.2 °
Period: 95.4 minutes
Semi major axis: 6917 km
RCS: Unknown
Launch date: June 17, 2022
Source: United States (US)
Launch site: AIR FORCE EASTERN TEST RANGE (AFETR)
Your satellite tracking list
Your tracking list is empty




NASA's NSSDC Master Catalog

Two Line Element Set (TLE):
1 52840U 22062L   24325.14368552  .00002767  00000-0  19182-3 0  9997
2 52840  53.2170   4.5549 0001051  66.0957 294.0146 15.08847259134144
Source of the keplerian elements: AFSPC